Location: LewisvilleTX
(33.0462°N, 96.9942°W)
Time: 07:39:31
(UTC+00:00)

Envisat - Pass Details

Date: 07 October 2020
Orbit: 764 x 766 km, 98.1° (Epoch: 21 October)

Event Time Altitude Azimuth Distance (km) Brightness Sun altitude
Rises 11:07:48 0° 38° (NE) 3,232 6.9 -17.4°
Reaches altitude 10° 11:11:31 10° 66° (ENE) 2,300 6.6 -16.6°
Maximum altitude 11:13:44 13° 92° (E) 2,105 6.5 -16.1°
Drops below altitude 10° 11:15:58 10° 119° (ESE) 2,294 6.4 -15.7°
Sets 11:19:38 0° 147° (SSE) 3,214 6.7 -14.9°
